Location: Feigenhofen
(48.4939°N, 10.7793°E)
Time: 16:21:37
(UTC+00:00)

ERBS - Pass Details

Date: 26 May 2022
Orbit: 359 x 376 km, 57.0° (Epoch: 29 June)

Event Time Altitude Azimuth Distance (km) Brightness Sun altitude
Exits shadow 00:31:47 44° 117° (ESE) 518 2.6 -18.3°
Drops below altitude 10° 00:34:26 10° 63° (ENE) 1,373 5.5 -18.1°
Enters shadow 01:28:57 -71° 238° (WSW) 12,450 9.6 -14.1°
